Regional Weather Roundup
Issued by NWS

Home | Current Version | Previous Version | Text Only | Print | Product List | Glossary On
Versions: 1 2 3 4 5 6 7 8 9 10 11 12 13 14 15 16 17 18 19 20 21 22 23 24 25 26 27 28 29 30 31 32 33 34 35 36 37 38 39 40 41 42 43 44 45 46 47 48 49 50
000
ASUS42 KKEY 280810
RWRKEY

FLORIDA REGIONAL WEATHER ROUNDUP FOR THE FLORIDA KEYS
NATIONAL WEATHER SERVICE KEY WEST FLORIDA
300 AM EST FRI NOV 28 2014

...SOUTH FLORIDA AND THE KEYS...

CITY           SKY/WX    TMP DP  RH WIND       PRES   REMARKS
FORT MYERS     CLEAR     51  40  65 NE16G23   30.24S
SW REGIONAL AP CLEAR     50  39  66 N14G23    30.24S WCI  45
NAPLES         CLEAR     52  39  61 N12G18    30.22F
MIAMI          CLEAR     57  42  57 N10       30.18S
WEST KENDALL   CLEAR     55  43  63 N14       30.18S
HOMESTEAD      CLEAR     55  44  66 NW12      30.16F
MARATHON       CLEAR     60  48  64 N16G24    30.17F
BOCA CHICA NAS PTCLDY    60  32  34 N16G26    30.18S
KEY WEST INTL  CLEAR     62  46  55 N15G25    30.19S

...INTERNATIONAL WEATHER...

CITY           SKY/WX    TMP DP  RH WIND       PRES   REMARKS
NASSAU BAHAMAS NOT AVBL
CANCUN MEXICO  PTCLDY    73  61  64 NE6       30.16F
COZUMEL MEXICO PTCLDY    72  61  68 NE12      30.16F

ADJACENT COASTAL WATERS...

STATION/POSITION TIME  SKY/WX   TEMP    WIND        PRES    WAVE
                                AIR SEA DIR/SP/G            HT/PER
                 (UTC)          (F)     (DEG/KT/KT) (MB)    (FT/S)
PULASKI SHOAL LI 0700            67      10/ 20/ 23 1022.4F
SAND KEY         0738            64      20/ 26/ 29 1021.8F
SOMBRERO KEY     0800            61      10/ 24/ 26 1021.3F
LONG KEY         0659            61 70   20/ 22/ 24 1022.5F
MOLASSES REEF    0800            60 77  340/ 20/ 23 1020.6S
FOWEY ROCKS      NOT AVBL
Buoy 42080       NOT AVBL

$$


USA.gov is the U.S. government's official web portal to all federal, state and local government web resources and services.